Location: Edinburgh
(55.9500°N, 3.1600°W)
Time: 16:54:05
(UTC+00:00)

Vanguard 1 - All Passes

Search period start: 16 December 2017 00:00
Search period end: 26 December 2017 00:00
Orbit: 650 x 3834 km, 34.2° (Epoch: 15 December)

Date Brightness Start Highest point End Pass type
(mag) Time Alt. Az. Time Alt. Az. Time Alt. Az.
16 Dec - 07:24:41 10° S 07:39:13 22° SSE 07:50:56 10° ESE visible
16 Dec - 09:44:14 10° SW 10:00:54 31° S 10:12:20 10° ESE daylight
16 Dec - 12:08:21 10° WSW 12:21:43 27° SSW 12:30:33 10° SSE daylight
16 Dec - 14:36:33 10° WSW 14:40:28 12° SW 14:43:49 10° SSW daylight
17 Dec - 05:33:30 10° SSE 05:38:39 11° SE 05:43:34 10° ESE visible
17 Dec - 07:43:32 10° SSW 07:59:45 26° SSE 08:12:27 10° ESE visible
17 Dec - 10:04:34 10° SW 10:21:32 32° S 10:33:02 10° SE daylight
17 Dec - 12:29:27 10° WSW 12:42:06 25° SSW 12:50:38 10° SSE daylight
18 Dec - 05:47:58 10° SSE 05:58:52 16° SE 06:08:45 10° ESE visible
18 Dec - 08:02:56 10° SSW 08:20:20 29° SSE 08:33:40 10° ESE daylight
18 Dec - 10:25:07 10° WSW 10:42:09 33° S 10:53:35 10° SE daylight
18 Dec - 12:50:45 10° WSW 13:02:23 22° SSW 13:10:29 10° SSE daylight
19 Dec - 06:05:13 10° S 06:19:09 20° SE 06:31:30 10° ESE visible
19 Dec - 08:22:44 10° SW 08:40:58 32° SSE 08:54:38 10° ESE daylight
19 Dec - 10:45:53 10° WSW 11:02:43 33° SSW 11:14:01 10° SE daylight
19 Dec - 13:12:21 10° WSW 13:22:33 19° SW 13:29:58 10° S daylight
20 Dec - 06:23:34 10° SSW 06:39:31 24° SSE 06:53:25 10° ESE visible
20 Dec - 08:42:51 10° SW 09:01:37 34° S 09:15:28 10° ESE daylight
20 Dec - 11:06:48 10° WSW 11:23:12 31° SSW 11:34:17 10° SE daylight
20 Dec - 13:34:24 10° WSW 13:42:35 16° SW 13:48:56 10° SSW daylight
21 Dec - 04:31:43 10° SSE 04:39:00 12° SE 04:46:08 10° ESE visible
21 Dec - 06:42:35 10° SSW 06:59:58 28° SSE 07:14:52 10° ESE visible
21 Dec - 09:03:12 10° SW 09:22:15 36° S 09:36:10 10° ESE daylight
21 Dec - 11:27:52 10° WSW 11:43:36 29° SSW 11:54:23 10° SSE daylight
21 Dec - 13:57:32 10° WSW 14:02:30 12° SW 14:06:45 10° SSW daylight
22 Dec - 04:47:16 10° SSE 04:59:03 17° SE 05:10:28 10° ESE visible
22 Dec - 07:02:05 10° SSW 07:20:30 32° SSE 07:36:04 10° ESE visible
22 Dec - 09:23:46 10° WSW 09:42:53 36° S 09:56:44 10° SE daylight
22 Dec - 11:49:08 10° WSW 12:03:53 26° SSW 12:14:15 10° SSE daylight
23 Dec - 05:04:51 10° S 05:19:12 21° SE 05:33:04 10° ESE visible
23 Dec - 07:21:56 10° SW 07:41:04 35° SSE 07:57:03 10° ESE visible
23 Dec - 09:44:30 10° WSW 10:03:28 36° S 10:17:10 10° SE daylight
23 Dec - 12:10:38 10° W 12:24:04 23° SW 12:33:49 10° S daylight
24 Dec - 05:23:23 10° S 05:39:27 25° SE 05:54:57 10° E visible
24 Dec - 07:42:04 10° SW 08:01:41 37° S 08:17:54 10° ESE visible
24 Dec - 10:05:24 10° WSW 10:23:59 34° SSW 10:37:27 10° SE daylight
24 Dec - 12:32:31 10° W 12:44:07 19° SW 12:52:57 10° S daylight
25 Dec - 03:31:51 10° SSE 03:39:12 13° SE 03:46:45 10° ESE visible
25 Dec - 05:42:31 10° SSW 05:59:48 29° SSE 06:16:25 10° ESE visible
25 Dec - 08:02:26 10° SW 08:22:20 38° S 08:38:37 10° ESE daylight
25 Dec - 10:26:27 10° WSW 10:44:25 32° SSW 10:57:34 10° SSE daylight
25 Dec - 12:55:00 10° WSW 13:04:02 15° SW 13:11:20 10° SSW daylight
